| time (UTC) | temp F | wind direction | speed MPH | gust MPH | rain 1hr in | rain 24hr in | rain mn in | humidity % | barometer mb |
| 20260510134552 | 55 | 194 | 0.0 | 0.0 | 0.00 | 0.54 | 0.00 | 80 | 1012.0 |
| 20260510133028 | 54 | 124 | 0.0 | 0.0 | 0.00 | 0.54 | 0.00 | 80 | 1012.1 |
| 20260510131517 | 53 | 121 | 0.0 | 0.0 | 0.00 | 0.54 | 0.00 | 81 | 1012.4 |
| 20260510130004 | 52 | 214 | 0.0 | 0.0 | 0.00 | 0.59 | 0.00 | 82 | 1012.3 |
| 20260510124611 | 52 | 283 | 0.0 | 0.0 | 0.00 | 0.59 | 0.00 | 82 | 1012.2 |
| 20260510123008 | 52 | 250 | 0.0 | 0.0 | 0.00 | 0.59 | 0.00 | 82 | 1012.3 |
| 20260510121600 | 51 | 146 | 0.0 | 0.0 | 0.00 | 0.59 | 0.00 | 83 | 1012.2 |
| 20260510121504 | 51 | 160 | 0.0 | 0.0 | 0.00 | 0.59 | 0.00 | 83 | 1012.2 |
| 20260510120050 | 51 | 213 | 0.0 | 0.0 | 0.00 | 0.59 | 0.00 | 83 | 1012.2 |
| 20260510114545 | 50 | 220 | 0.0 | 0.0 | 0.00 | 0.60 | 0.00 | 83 | 1012.3 |
| 20260510113038 | 50 | 222 | 0.0 | 0.0 | 0.00 | 0.60 | 0.00 | 83 | 1012.3 |
| 20260510111542 | 49 | 223 | 0.0 | 0.0 | 0.00 | 0.60 | 0.00 | 83 | 1012.3 |
| 20260510110039 | 49 | 245 | 0.0 | 0.0 | 0.00 | 0.60 | 0.00 | 83 | 1012.1 |
| 20260510104529 | 49 | 213 | 0.0 | 0.0 | 0.00 | 0.61 | 0.00 | 83 | 1011.8 |
| 20260510103014 | 49 | 239 | 0.0 | 0.0 | 0.00 | 0.61 | 0.00 | 83 | 1011.5 |
| 20260510101553 | 49 | 253 | 0.0 | 0.0 | 0.00 | 0.61 | 0.00 | 83 | 1011.4 |
| 20260510100100 | 49 | 152 | 0.0 | 0.0 | 0.00 | 0.61 | 0.00 | 84 | 1011.1 |
| 20260510094602 | 48 | 264 | 0.0 | 0.0 | 0.00 | 0.61 | 0.00 | 83 | 1010.9 |
| 20260510093104 | 48 | 229 | 0.0 | 0.0 | 0.00 | 0.61 | 0.00 | 83 | 1010.8 |
| 20260510091544 | 48 | 229 | 0.0 | 0.0 | 0.00 | 0.61 | 0.00 | 83 | 1010.7 |
| 20260510090028 | 48 | 227 | 0.0 | 0.0 | 0.00 | 0.61 | 0.00 | 84 | 1010.6 |
| 20260510084521 | 48 | 246 | 0.0 | 0.0 | 0.00 | 0.61 | 0.00 | 84 | 1010.5 |
| 20260510083101 | 47 | 200 | 0.0 | 0.0 | 0.00 | 0.61 | 0.00 | 83 | 1010.4 |
| 20260510083003 | 47 | 200 | 0.0 | 0.0 | 0.00 | 0.61 | 0.00 | 83 | 1010.4 |
| 20260510081548 | 47 | 200 | 0.0 | 0.0 | 0.00 | 0.61 | 0.00 | 83 | 1011.0 |
| 20260510080044 | 47 | 201 | 0.0 | 0.0 | 0.00 | 0.61 | 0.00 | 83 | 1011.2 |
| 20260510074532 | 47 | 201 | 0.0 | 0.0 | 0.00 | 0.61 | 0.00 | 83 | 1011.3 |
| 20260510073026 | 47 | 203 | 0.0 | 0.0 | 0.00 | 0.61 | 0.00 | 83 | 1011.2 |
| 20260510071502 | 47 | 203 | 0.0 | 0.0 | 0.00 | 0.61 | 0.00 | 83 | 1011.3 |
| 20260510070022 | 47 | 203 | 0.0 | 0.0 | 0.00 | 0.61 | 0.00 | 83 | 1011.2 |
| 20260510064510 | 47 | 203 | 0.0 | 0.0 | 0.00 | 0.61 | 0.00 | 83 | 1011.1 |
| 20260510063054 | 47 | 203 | 0.0 | 0.0 | 0.00 | 0.61 | 0.00 | 83 | 1010.9 |
| 20260510061546 | 47 | 203 | 0.0 | 0.0 | 0.00 | 0.61 | 0.00 | 83 | 1010.9 |
| 20260510060032 | 47 | 203 | 0.0 | 0.0 | 0.00 | 0.61 | 0.00 | 83 | 1011.1 |
| 20260510054518 | 47 | 197 | 0.0 | 0.0 | 0.00 | 0.61 | 0.00 | 83 | 1011.4 |
| 20260510053033 | 47 | 229 | 0.0 | 0.0 | 0.00 | 0.61 | 0.00 | 83 | 1011.4 |
| 20260510051528 | 47 | 225 | 0.0 | 0.0 | 0.00 | 0.61 | 0.00 | 83 | 1011.2 |
| 20260510050005 | 47 | 224 | 0.0 | 0.0 | 0.00 | 0.61 | 0.00 | 82 | 1011.5 |
| 20260510044512 | 47 | 224 | 0.0 | 0.0 | 0.00 | 0.61 | 0.00 | 82 | 1011.3 |
| 20260510043004 | 47 | 224 | 0.0 | 0.0 | 0.00 | 0.61 | 0.00 | 82 | 1011.3 |
| 20260510041554 | 47 | 224 | 0.0 | 0.0 | 0.00 | 0.61 | 0.00 | 82 | 1011.5 |
| 20260510040044 | 47 | 226 | 0.0 | 0.0 | 0.00 | 0.61 | 0.00 | 82 | 1011.3 |
| 20260510034528 | 48 | 226 | 0.0 | 0.0 | 0.00 | 0.61 | 0.61 | 82 | 1011.3 |
| 20260510033017 | 48 | 226 | 0.0 | 0.0 | 0.00 | 0.61 | 0.61 | 82 | 1011.6 |
| 20260510031510 | 48 | 141 | 0.0 | 0.0 | 0.00 | 0.61 | 0.61 | 82 | 1011.4 |
| 20260510030104 | 48 | 141 | 0.0 | 0.0 | 0.00 | 0.61 | 0.61 | 82 | 1011.3 |
| 20260510030002 | 48 | 141 | 0.0 | 0.0 | 0.00 | 0.61 | 0.61 | 82 | 1011.3 |
| 20260510024553 | 48 | 141 | 0.0 | 0.0 | 0.00 | 0.61 | 0.61 | 82 | 1011.5 |
| 20260510023047 | 48 | 222 | 0.0 | 0.0 | 0.00 | 0.61 | 0.61 | 82 | 1011.5 |
| 20260510021546 | 48 | 238 | 0.0 | 0.0 | 0.00 | 0.61 | 0.61 | 82 | 1011.3 |
| 20260510020030 | 48 | 190 | 0.0 | 0.0 | 0.00 | 0.61 | 0.61 | 82 | 1011.4 |
| 20260510014549 | 48 | 190 | 0.0 | 0.0 | 0.00 | 0.61 | 0.61 | 82 | 1011.8 |
| 20260510010055 | 48 | 181 | 0.0 | 0.0 | 0.00 | 0.61 | 0.61 | 81 | 1011.4 |
| 20260510004545 | 48 | 228 | 0.0 | 0.0 | 0.00 | 0.61 | 0.61 | 81 | 1011.2 |
| 20260510003036 | 48 | 273 | 0.0 | 0.0 | 0.00 | 0.61 | 0.61 | 81 | 1011.1 |
| 20260510001537 | 48 | 281 | 0.0 | 0.0 | 0.00 | 0.61 | 0.61 | 81 | 1010.7 |
| 20260510000023 | 49 | 281 | 0.0 | 0.0 | 0.00 | 0.61 | 0.61 | 81 | 1010.7 |
| 20260509234511 | 49 | 93 | 0.0 | 0.0 | 0.00 | 0.61 | 0.61 | 81 | 1010.5 |
| 20260509233010 | 49 | 300 | 0.0 | 0.0 | 0.00 | 0.61 | 0.61 | 81 | 1010.5 |
| 20260509231551 | 50 | 300 | 0.0 | 0.0 | 0.00 | 0.61 | 0.61 | 81 | 1010.4 |
| 20260509230045 | 49 | 337 | 0.0 | 0.0 | 0.00 | 0.61 | 0.61 | 81 | 1010.5 |
| 20260509224543 | 49 | 337 | 0.0 | 0.0 | 0.00 | 0.61 | 0.61 | 81 | 1010.6 |
| 20260509223033 | 49 | 337 | 0.0 | 0.0 | 0.00 | 0.61 | 0.61 | 81 | 1010.5 |
| 20260509221519 | 48 | 337 | 0.0 | 0.0 | 0.00 | 0.61 | 0.61 | 80 | 1010.5 |
| 20260509220018 | 49 | 338 | 0.0 | 0.0 | 0.00 | 0.61 | 0.61 | 81 | 1010.5 |
| 20260509214504 | 48 | 338 | 0.0 | 0.0 | 0.00 | 0.61 | 0.61 | 81 | 1010.7 |
| 20260509213102 | 47 | 338 | 0.0 | 0.0 | 0.01 | 0.61 | 0.61 | 80 | 1010.8 |
| 20260509211551 | 47 | 59 | 0.0 | 0.0 | 0.02 | 0.61 | 0.61 | 80 | 1010.9 |
| 20260509210044 | 47 | 61 | 0.0 | 0.0 | 0.03 | 0.61 | 0.61 | 80 | 1011.2 |
| 20260509204521 | 46 | 258 | 0.0 | 0.0 | 0.04 | 0.61 | 0.61 | 79 | 1011.5 |
| 20260509203016 | 46 | 314 | 0.0 | 0.0 | 0.05 | 0.60 | 0.60 | 79 | 1011.7 |
| 20260509201506 | 46 | 314 | 0.0 | 0.0 | 0.07 | 0.59 | 0.59 | 79 | 1011.7 |
| 20260509200017 | 46 | 352 | 0.0 | 0.0 | 0.07 | 0.57 | 0.57 | 79 | 1011.9 |
| 20260509194511 | 46 | 350 | 0.0 | 0.0 | 0.07 | 0.56 | 0.56 | 79 | 1012.0 |
| 20260509193003 | 46 | 350 | 0.0 | 0.0 | 0.06 | 0.54 | 0.55 | 78 | 1012.0 |
| 20260509191604 | 46 | 350 | 0.0 | 0.0 | 0.06 | 0.52 | 0.53 | 79 | 1011.7 |
| 20260509190050 | 46 | 67 | 0.0 | 0.0 | 0.07 | 0.51 | 0.51 | 79 | 1012.0 |
| 20260509184600 | 46 | 32 | 0.0 | 0.0 | 0.09 | 0.50 | 0.50 | 78 | 1012.0 |
| 20260509183052 | 46 | 26 | 0.0 | 0.0 | 0.08 | 0.48 | 0.48 | 78 | 1012.1 |
| 20260509181531 | 45 | 17 | 0.0 | 0.0 | 0.07 | 0.46 | 0.46 | 78 | 1012.4 |
| 20260509180017 | 45 | 17 | 0.0 | 0.0 | 0.06 | 0.43 | 0.44 | 78 | 1012.5 |
| 20260509174505 | 45 | 278 | 0.0 | 0.0 | 0.05 | 0.41 | 0.41 | 78 | 1012.6 |
| 20260509173053 | 45 | 262 | 0.0 | 0.0 | 0.05 | 0.40 | 0.40 | 77 | 1012.7 |
| 20260509171528 | 45 | 239 | 0.0 | 0.0 | 0.06 | 0.39 | 0.39 | 78 | 1012.8 |
| 20260509170006 | 44 | 239 | 0.0 | 0.0 | 0.05 | 0.37 | 0.37 | 77 | 1013.0 |
| 20260509164542 | 44 | 239 | 0.0 | 0.0 | 0.06 | 0.36 | 0.36 | 77 | 1013.0 |
| 20260509163034 | 43 | 281 | 0.0 | 0.0 | 0.07 | 0.35 | 0.35 | 76 | 1013.2 |
| 20260509161514 | 43 | 108 | 0.0 | 0.0 | 0.08 | 0.33 | 0.33 | 76 | 1013.2 |
| 20260509160056 | 43 | 2 | 0.0 | 0.0 | 0.09 | 0.32 | 0.32 | 76 | 1013.5 |
| 20260509154545 | 43 | 2 | 0.0 | 0.0 | 0.10 | 0.30 | 0.30 | 76 | 1013.8 |
| 20260509153051 | 43 | 336 | 0.0 | 0.0 | 0.10 | 0.28 | 0.28 | 76 | 1014.0 |
| 20260509151527 | 43 | 337 | 0.0 | 0.0 | 0.11 | 0.25 | 0.25 | 75 | 1014.1 |
| 20260509150015 | 43 | 278 | 0.0 | 0.0 | 0.10 | 0.23 | 0.23 | 75 | 1014.1 |
| 20260509144505 | 43 | 336 | 0.0 | 0.0 | 0.09 | 0.20 | 0.20 | 75 | 1014.0 |
| 20260509143053 | 43 | 335 | 0.0 | 0.0 | 0.10 | 0.18 | 0.18 | 75 | 1014.1 |
| 20260509141543 | 42 | 37 | 0.0 | 0.0 | 0.06 | 0.14 | 0.14 | 75 | 1014.2 |
| 20260509140030 | 42 | 29 | 0.0 | 0.0 | 0.06 | 0.13 | 0.13 | 75 | 1014.0 |